Location: Bonaustraße
(48.4603°N, 11.9280°E)
Time: 02:52:44
(UTC+01:00)

Envisat - Pass Details

Date: 21 January 2021
Orbit: 764 x 766 km, 98.1° (Epoch: 05 March)

Event Time Altitude Azimuth Distance (km) Brightness Sun altitude
Rises 04:42:32 0° 28° (NNE) 3,244 6.7 -31.4°
Reaches altitude 10° 04:45:43 10° 49° (NE) 2,311 6.1 -30.8°
Maximum altitude 04:48:56 17° 88° (E) 1,885 5.8 -30.3°
Drops below altitude 10° 04:52:07 10° 128° (SE) 2,299 6.0 -29.8°
Sets 04:55:15 0° 148° (SSE) 3,219 6.6 -29.3°
